Theta_e
297 297 297 297 297 297 297 297 297 298 298 299 300 303 306 310 310 309 309 311 313 315 317 314 315 318 317 314 314 314 314 313 312 311 311 311 310 310 310 311 311 310 311 313 313 314 314 313 314 315 314 314 313 311 312 313 314 317 317 312 314 320 322 320 318 317 316 313 312 312 310 311 313 311 311 314 311 315 326 326 324 322 314 315 320 318 321
297 297 297 297 297 297 296 297 297 298 299 299 300 303 307 309 309 308 309 311 313 314 314 312 315 319 315 312 312 312 311 311 311 310 310 310 309 311 312 312 310 309 312 313 311 312 313 313 313 315 315 313 311 312 313 313 316 317 315 314 315 315 316 317 317 315 312 314 317 317 314 313 312 310 312 311 309 317 321 317 324 324 312 316 323 319 318
297 297 297 297 297 297 296 297 297 298 299 300 301 305 307 309 310 307 306 308 310 311 310 309 313 316 315 313 311 310 310 310 309 309 309 308 308 310 311 310 309 310 313 314 312 311 313 314 314 315 316 314 311 312 313 312 315 316 313 313 315 315 318 323 322 316 314 317 320 320 315 311 311 311 312 312 313 316 314 314 326 323 312 318 325 320 317
297 297 297 297 297 297 296 297 297 298 300 301 303 306 308 309 310 308 307 306 306 307 307 308 309 311 313 313 309 308 309 309 308 308 308 307 307 307 307 307 311 314 314 315 314 311 312 314 313 313 315 316 311 309 314 314 314 316 312 310 317 322 319 322 325 321 319 320 317 315 313 312 311 310 310 313 315 317 320 321 323 320 317 318 317 315 317
297 297 297 297 297 297 296 297 297 298 301 303 304 306 306 307 307 307 307 306 306 306 307 307 307 308 310 311 307 307 308 307 308 308 308 307 307 308 305 304 310 314 314 316 315 312 312 312 312 311 311 315 312 308 310 311 311 314 309 307 320 328 318 314 318 315 313 314 311 308 309 308 308 309 311 313 316 321 327 322 313 315 322 317 310 314 318
296 297 297 297 297 296 296 296 297 298 301 304 305 305 305 306 305 304 306 306 306 307 307 307 306 305 308 308 306 307 307 306 307 308 308 307 307 311 308 304 305 306 309 315 315 313 315 314 312 311 310 313 315 312 310 309 307 310 310 308 319 327 316 309 312 311 308 310 308 306 308 307 307 311 313 313 315 318 318 313 310 316 323 315 309 312 313
296 296 297 297 296 296 296 297 296 298 302 304 306 305 304 304 304 304 304 305 305 305 305 305 305 304 306 307 305 306 307 307 305 305 309 310 307 309 308 304 303 303 306 311 311 310 314 313 311 310 309 311 314 312 312 310 305 309 314 311 312 319 316 311 313 312 309 308 307 306 307 308 309 311 310 309 312 313 313 310 309 312 314 309 308 310 309
296 296 297 296 296 296 296 297 296 297 301 304 305 304 303 303 303 303 303 303 302 303 303 304 305 304 305 305 304 304 304 306 305 304 308 310 307 307 307 304 303 302 303 307 307 306 308 309 309 309 309 312 312 309 310 308 305 310 316 312 310 315 314 315 320 317 309 308 307 306 308 309 310 311 309 309 310 311 312 310 309 310 308 306 308 310 308
296 296 296 296 296 296 296 297 296 296 299 303 304 303 303 303 303 303 304 302 301 301 302 303 304 304 303 303 303 303 303 304 305 304 304 305 306 307 306 304 303 303 303 305 305 304 304 306 307 306 307 308 308 307 308 307 305 310 314 312 314 317 313 314 321 317 309 308 307 307 309 309 310 312 310 310 312 311 309 307 308 309 308 307 310 310 307
295 296 296 296 296 296 296 297 297 296 297 301 303 303 303 303 303 303 303 302 300 300 301 302 303 303 303 302 302 302 302 302 305 307 304 302 303 304 303 304 305 304 304 304 303 302 302 304 304 303 304 305 305 305 306 305 304 307 311 310 314 321 317 313 317 316 310 309 308 311 314 311 311 312 308 306 307 306 305 304 304 305 307 309 310 307 304
295 296 296 296 296 296 296 297 298 297 297 299 302 303 303 303 302 301 302 303 300 297 300 302 302 302 302 302 302 302 303 303 304 306 304 301 301 302 301 303 307 306 303 302 303 302 303 304 304 304 304 303 304 304 304 305 305 305 309 310 311 319 321 316 316 317 311 310 312 314 315 312 310 308 306 306 306 304 304 304 302 303 305 306 305 304 304
295 296 296 296 296 296 296 297 298 297 297 299 301 303 303 303 302 300 301 303 300 298 300 301 300 301 301 300 301 302 302 303 303 303 303 302 301 302 300 301 304 305 302 301 303 303 304 305 305 306 305 303 304 303 303 307 307 303 305 309 311 316 318 314 317 319 312 311 314 314 311 310 306 303 304 305 303 301 302 302 302 303 303 303 303 303 303
295 296 296 296 296 296 295 296 297 297 297 298 301 302 302 302 303 301 300 302 300 298 300 300 298 299 300 300 301 301 301 302 302 301 302 302 301 301 301 301 301 302 302 302 303 303 306 309 311 310 308 307 309 308 305 306 307 304 304 307 310 315 316 312 312 314 309 309 313 312 307 305 304 303 304 303 302 303 304 303 302 302 303 303 302 302 300
295 296 296 296 296 296 295 295 296 297 297 298 299 301 301 301 302 301 300 302 300 298 299 301 300 299 299 299 300 300 300 301 301 302 302 301 301 301 300 301 301 301 302 302 302 303 307 312 314 311 309 311 312 311 308 305 305 306 306 305 306 312 316 312 309 309 310 310 308 306 305 305 304 305 304 302 302 304 305 305 302 300 301 300 301 301 299
295 295 296 296 296 295 295 295 295 296 297 298 299 300 301 300 300 301 301 301 301 299 299 300 300 299 299 299 299 301 302 302 301 303 302 300 301 301 300 301 301 302 303 302 302 307 310 311 312 310 308 309 308 307 308 306 304 306 306 304 306 308 310 311 308 308 311 311 306 304 307 307 307 308 306 302 301 301 302 304 302 299 298 298 299 300 298
295 295 296 296 295 295 295 295 295 296 297 297 298 299 300 299 299 300 299 300 301 301 299 298 298 298 298 298 298 300 301 302 302 304 305 302 300 300 300 301 301 302 303 301 302 309 312 310 309 310 308 307 306 306 307 308 307 306 305 306 308 308 309 312 312 308 308 310 309 307 308 307 306 306 304 300 300 299 301 306 304 299 297 297 297 297 296
295 295 295 296 295 295 295 295 295 296 296 297 298 299 300 299 298 299 298 298 299 299 297 297 298 298 298 299 299 298 299 300 300 302 304 302 300 300 300 300 301 301 302 303 305 309 310 308 308 309 307 305 306 307 306 308 309 307 307 308 309 310 311 312 311 309 308 309 308 306 305 305 304 304 302 299 298 299 303 309 306 298 296 297 297 296 297
295 295 295 296 295 295 295 295 295 296 296 297 297 298 299 299 298 298 298 298 298 297 297 297 298 298 298 298 298 298 298 299 299 301 302 300 299 299 300 299 300 300 301 305 308 308 306 305 305 306 305 304 305 308 307 307 307 305 307 309 308 308 310 308 307 308 309 310 308 304 304 304 302 302 300 298 298 301 305 308 303 297 296 298 297 297 297
296 295 295 295 296 295 295 295 296 297 297 297 297 298 299 299 298 298 298 298 298 297 297 297 298 297 297 297 297 297 298 298 299 301 303 302 299 299 299 299 300 299 300 304 306 304 304 304 303 303 305 303 304 307 306 303 303 303 305 307 306 306 307 306 305 306 307 307 305 303 304 302 299 299 299 298 301 305 304 301 298 296 297 298 297 297 298
296 296 296 296 295 295 295 295 296 297 297 296 297 298 298 299 299 298 298 298 298 297 297 297 297 297 297 297 297 297 297 298 298 299 301 301 299 300 303 304 301 299 299 303 304 302 302 303 302 302 303 301 302 306 305 302 300 301 302 304 303 303 305 305 303 303 304 304 304 304 304 301 298 299 300 299 301 302 299 297 297 297 297 297 297 298 297
296 296 296 296 296 296 295 296 297 298 297 296 296 297 298 299 299 299 298 298 298 298 297 297 297 297 297 297 297 297 297 297 298 298 299 299 299 301 303 303 300 299 299 300 301 300 299 301 301 300 301 301 301 302 303 303 302 300 301 302 301 301 305 306 303 302 303 304 302 301 300 298 297 299 300 298 298 298 297 297 298 297 297 297 298 298 297
296 296 296 296 296 296 296 296 297 298 297 296 295 296 297 299 299 298 299 298 299 298 297 297 297 297 297 297 297 297 297 297 297 297 298 298 298 299 300 299 298 299 298 298 300 300 299 299 300 300 300 301 300 299 301 304 303 300 300 301 300 300 302 303 301 299 300 301 299 298 297 297 297 298 298 298 298 297 297 298 297 297 298 297 297 298 298
296 296 296 296 296 296 296 296 297 298 298 297 295 295 296 298 299 299 299 299 298 298 298 298 297 297 297 296 297 297 297 297 297 297 297 297 297 298 298 298 299 299 298 298 299 299 298 298 299 300 300 300 300 300 301 301 300 299 299 299 298 298 298 299 299 298 298 298 298 297 297 298 297 298 298 298 298 297 297 297 297 297 297 297 297 298 297
297 296 296 296 296 296 296 296 297 297 298 297 297 296 296 297 298 299 299 299 298 298 297 297 297 297 297 296 297 297 296 296 297 297 297 297 297 298 298 298 299 298 298 299 298 298 298 298 298 300 300 298 299 301 301 300 299 299 301 301 299 298 297 298 298 299 299 299 297 297 298 298 297 298 298 297 298 297 297 297 297 297 297 297 297 297 297
297 296 296 296 296 296 296 296 297 297 297 298 297 296 296 296 297 298 299 299 298 298 297 297 297 297 297 296 296 296 296 296 296 297 297 297 296 298 298 298 298 298 298 298 298 298 298 297 298 301 301 297 298 299 299 299 299 299 301 301 300 298 298 298 299 300 300 299 297 296 297 297 297 298 298 297 297 297 297 297 297 297 297 297 297 297 297
297 296 296 296 296 296 296 295 296 297 298 298 298 297 296 295 296 297 298 298 298 297 298 298 297 297 297 296 296 296 296 296 296 296 296 296 296 297 298 297 298 298 297 298 298 298 297 297 298 301 300 298 298 299 298 297 297 298 299 299 297 297 298 297 298 299 298 297 297 296 296 297 297 297 297 297 297 297 297 297 297 297 297 297 297 297 297
297 296 296 296 296 296 296 296 296 297 298 298 299 299 297 295 295 297 297 297 298 299 299 299 298 297 297 296 296 296 296 296 296 296 296 296 296 296 297 297 297 297 297 297 297 297 297 297 298 299 298 297 297 297 296 296 296 298 299 298 296 297 298 296 298 300 301 299 297 296 296 297 297 296 297 297 297 297 297 297 297 297 297 297 296 296 296
297 297 296 296 296 297 297 296 295 296 298 299 299 300 298 294 293 295 296 296 298 298 299 299 298 297 297 296 296 296 296 296 296 296 296 296 296 296 296 296 296 296 296 297 298 297 297 297 297 297 297 297 297 297 295 295 297 299 299 298 297 297 297 297 300 302 301 299 297 296 297 297 297 296 297 297 297 297 297 297 297 297 296 296 296 296 296
297 297 296 296 297 297 297 296 295 296 297 298 299 300 299 295 292 294 295 296 296 297 297 297 298 298 298 297 296 296 296 296 297 296 296 296 296 296 296 295 296 296 296 296 297 296 296 296 296 296 297 297 298 298 297 297 299 299 298 297 297 297 297 297 298 299 298 297 297 297 297 297 296 297 297 296 297 297 297 296 297 296 296 296 296 295 295
296 297 296 296 297 297 296 296 296 296 296 296 296 298 298 296 293 293 294 295 296 296 296 297 298 298 298 297 297 297 296 297 297 297 297 296 296 296 296 295 295 295 295 296 296 295 295 295 295 296 297 296 296 297 297 297 297 297 297 297 297 297 297 297 297 297 297 297 297 297 297 296 296 296 296 296 297 297 296 296 296 296 295 295 295 294 294
296 297 296 296 297 297 296 296 297 296 295 296 296 295 296 296 295 294 294 294 295 296 296 297 298 298 297 297 297 297 297 297 297 297 297 297 297 296 296 295 295 295 295 295 295 294 295 295 295 296 297 296 296 298 299 298 297 296 296 297 297 297 297 297 297 297 297 297 296 297 296 296 296 296 296 296 296 296 296 296 296 295 295 294 294 293 293
296 297 296 297 297 297 296 296 297 297 297 297 297 296 297 297 296 295 294 294 295 296 297 298 298 297 296 296 297 297 297 297 297 297 297 297 296 296 296 295 295 295 295 295 295 295 294 294 295 296 296 297 298 299 299 300 299 298 297 297 297 297 297 297 297 297 297 297 296 296 296 296 296 296 296 296 296 296 296 295 295 294 293 294 294 293 293
296 296 297 297 298 297 296 296 298 298 298 298 298 298 298 298 297 296 294 294 295 297 298 299 298 297 296 296 297 297 297 297 297 297 297 297 296 296 296 295 295 295 296 296 295 295 295 295 295 295 296 297 297 297 298 299 299 298 297 297 297 297 297 297 297 297 296 296 296 296 296 296 296 296 296 296 296 296 295 295 294 293 293 293 293 292 291
296 296 296 297 298 298 297 297 297 298 299 299 299 299 298 297 297 296 295 293 294 297 299 298 298 297 297 297 298 298 297 297 297 297 296 296 296 296 296 295 295 295 296 296 295 295 295 295 295 296 296 296 295 295 297 298 297 296 297 297 297 297 297 297 297 297 296 296 296 296 296 296 296 296 296 296 295 295 294 294 293 293 293 293 292 290 289
296 296 296 297 298 298 299 298 298 299 299 299 298 297 296 296 296 295 294 294 294 295 297 297 297 298 298 299 300 299 297 296 296 296 296 296 297 296 295 295 295 295 296 295 294 294 294 295 295 296 295 294 295 297 298 297 296 295 297 297 297 297 297 297 296 297 296 296 296 296 296 296 296 296 296 296 295 294 293 293 293 294 293 293 291 290 290
296 296 296 297 297 298 299 300 300 299 299 299 298 297 296 296 295 294 294 294 294 294 295 297 297 297 297 299 299 297 297 297 297 296 296 297 297 296 296 295 295 296 295 294 294 294 295 295 296 296 294 295 297 298 297 296 296 296 297 297 297 297 297 297 296 296 296 295 295 296 296 296 296 296 295 295 294 293 293 293 293 293 293 292 292 292 291
296 296 297 297 298 299 300 300 300 300 299 299 298 297 297 296 296 295 295 295 295 295 295 296 297 296 296 297 297 296 297 298 297 296 297 297 296 295 295 296 295 295 295 296 296 296 296 295 295 296 296 297 298 297 295 295 297 297 296 297 297 297 297 296 296 296 296 296 296 296 296 296 296 295 295 295 294 293 293 293 293 293 292 292 292 292 291
296 297 298 298 298 299 299 300 299 299 299 298 297 297 297 297 296 297 297 297 297 298 297 296 297 296 296 296 297 297 297 297 296 296 297 297 296 296 296 296 295 294 295 297 296 294 296 297 297 296 297 297 296 295 296 296 296 296 296 297 297 297 296 296 296 296 296 296 296 296 296 295 295 295 295 294 293 293 293 293 293 293 292 291 292 292 291
297 298 298 298 298 298 299 299 299 299 298 298 297 297 298 298 298 298 298 298 298 299 298 298 297 297 297 297 297 297 297 296 296 297 297 296 296 297 296 295 295 294 295 297 296 293 295 298 297 296 297 296 294 295 297 296 296 296 297 297 297 297 296 295 295 295 295 295 295 295 295 295 295 294 294 294 293 293 293 293 293 293 292 291 292 292 291
296 297 297 297 297 297 297 297 297 297 298 297 297 297 298 298 298 298 298 298 299 298 298 298 298 297 297 297 297 297 297 297 297 298 298 296 296 295 294 295 295 294 294 296 295 293 295 296 295 295 299 299 296 295 297 297 296 297 297 297 297 296 295 294 295 295 295 295 295 295 295 295 295 294 294 294 293 293 293 293 293 292 291 291 291 291 291
296 296 296 296 296 296 296 296 296 296 297 297 297 297 297 297 297 297 296 298 299 299 298 297 298 297 297 297 297 297 297 298 297 296 297 297 295 295 295 295 294 293 294 295 295 294 296 296 295 296 299 298 296 296 297 297 297 297 297 297 296 295 295 294 295 295 295 295 295 295 294 294 294 294 294 294 294 292 292 292 292 292 291 291 291 290 290
295 296 296 296 296 296 296 297 297 297 297 297 297 297 296 296 296 296 296 297 298 298 297 296 297 297 297 297 297 297 297 297 296 296 297 296 295 295 296 296 294 294 296 296 295 295 295 294 296 298 298 295 295 296 297 296 297 297 297 296 296 295 295 295 295 295 295 295 295 295 294 294 294 295 294 294 293 292 292 292 292 292 291 291 290 289 289
295 296 296 297 297 296 296 297 297 297 297 297 297 296 296 297 297 297 297 297 297 297 296 297 297 297 297 297 297 296 297 297 296 296 296 296 295 295 296 296 295 295 296 295 295 295 295 295 297 300 298 294 294 296 297 296 297 297 296 296 295 295 295 295 295 295 295 295 295 295 295 294 295 294 293 292 292 291 291 292 292 291 291 291 290 289 288
296 296 296 297 296 296 296 297 297 297 297 297 296 296 297 297 297 297 298 298 298 297 297 297 297 297 298 297 296 296 296 296 296 296 295 295 296 296 296 296 296 294 294 296 296 295 295 296 298 297 295 294 295 295 296 296 297 296 296 295 295 296 296 295 295 295 295 295 295 295 295 295 294 293 292 291 291 291 292 292 292 291 291 290 290 289 288
296 296 296 296 297 296 295 296 296 297 297 298 297 297 296 296 297 297 298 298 298 297 297 297 297 297 298 297 296 296 296 295 296 296 295 294 295 295 295 297 297 294 293 296 297 295 295 297 298 295 293 295 295 295 295 296 297 296 296 295 295 295 295 295 295 295 295 295 295 295 295 295 294 293 292 292 292 292 292 292 292 291 291 290 290 288 288
296 296 295 296 297 296 295 296 297 297 297 296 296 296 296 295 296 296 297 297 297 297 297 297 297 297 297 296 296 296 296 295 295 296 295 294 296 296 295 295 295 295 295 296 296 296 297 298 296 293 294 295 295 295 295 296 296 296 296 295 295 295 295 295 295 295 295 295 295 295 294 294 294 293 293 292 292 292 292 292 292 291 291 290 289 288 287
296 295 295 297 298 297 296 296 297 296 295 295 295 295 295 295 296 296 296 297 297 297 297 297 297 297 297 296 296 296 296 295 296 296 295 295 296 297 296 295 295 296 296 295 297 299 300 297 294 293 295 296 296 296 296 296 296 296 296 295 295 295 295 295 295 295 295 295 295 295 294 294 293 293 293 293 293 292 292 292 291 291 291 290 289 287 286
295 294 296 298 299 297 296 296 296 295 295 295 296 295 295 296 296 296 297 297 297 297 297 297 297 296 296 296 296 295 295 295 296 296 296 296 296 296 296 296 296 296 296 296 298 300 299 296 294 295 296 296 296 296 296 296 296 296 296 295 295 295 294 295 295 295 295 296 296 295 295 294 294 293 293 293 293 293 292 292 291 291 291 290 288 286 285
296 295 296 297 296 295 295 296 296 295 295 296 296 295 296 296 296 296 296 296 296 297 297 296 296 296 296 296 295 295 295 295 296 296 296 296 297 296 297 297 296 296 297 297 297 296 296 295 294 295 296 296 296 296 296 295 296 296 295 295 294 294 294 294 295 295 295 295 296 296 295 295 295 294 294 293 293 293 293 292 291 291 291 290 288 286 286
296 296 295 296 295 295 295 295 295 295 295 295 295 295 296 295 295 296 296 296 296 296 296 296 296 296 295 295 295 296 296 295 295 296 297 297 297 296 296 296 297 298 299 297 294 294 295 295 296 296 296 296 296 296 295 296 296 296 295 294 294 294 294 294 294 294 295 295 295 296 296 296 295 295 294 293 293 293 293 292 292 291 291 290 288 287 287
296 295 295 296 296 296 295 295 296 296 295 295 295 296 295 295 296 296 296 296 296 296 296 296 296 296 296 296 296 296 295 295 295 295 296 297 297 296 297 297 297 297 297 296 294 294 296 296 296 296 296 296 296 296 296 295 295 295 295 294 294 293 294 294 294 294 295 295 295 296 296 296 296 296 295 294 293 293 293 292 292 291 291 291 289 288 288
295 295 295 295 296 296 295 295 295 295 295 295 296 296 295 295 296 296 296 296 296 296 296 296 296 297 297 296 296 295 295 295 295 295 296 295 295 295 297 298 297 295 295 295 295 295 296 296 296 296 296 296 296 296 296 295 295 295 295 294 294 294 294 294 294 294 294 295 295 296 296 296 296 296 295 295 294 293 293 293 293 292 292 291 290 289 289
Wind_Speed
25 27 29 30 32 32 32 31 30 31 30 26 24 20 15 10 4 12 19 2 16 7 2 1 0 2 2 2 4 4 3 2 3 4 4 3 5 4 3 4 4 4 3 1 2 3 1 1 3 3 2 1 2 1 9 10 5 4 2 2 1 2 4 4 1 3 3 4 5 4 4 5 6 4 2 2 2 1 4 5 4 3 3 2 4 2 4
25 27 29 31 32 32 32 31 29 29 30 27 23 17 13 11 6 14 21 5 14 4 3 0 1 3 3 2 3 5 5 5 5 5 1 2 2 2 1 2 2 1 1 3 3 3 2 2 2 4 2 1 4 0 11 10 3 2 1 2 0 1 1 4 3 1 2 3 4 4 5 4 3 2 4 3 4 3 2 1 3 3 2 4 5 2 5
25 27 29 31 32 32 32 32 29 28 28 24 19 14 12 9 5 12 21 16 11 6 3 1 2 3 3 3 4 4 4 3 5 2 3 7 4 2 3 4 5 4 3 5 5 5 4 1 3 2 2 3 6 6 5 6 4 4 4 2 2 2 2 3 5 5 4 2 2 2 1 2 1 2 5 4 5 5 2 2 4 3 1 3 5 5 4
25 27 29 30 31 32 31 31 30 28 27 22 15 12 10 6 4 6 13 21 22 15 12 11 5 4 1 2 5 6 3 6 10 7 7 8 7 6 6 6 4 5 5 5 6 8 5 2 3 4 4 2 4 10 7 6 7 8 9 7 4 4 3 2 5 6 6 5 4 3 3 4 1 1 4 5 4 4 4 4 3 3 3 3 1 4 2
25 26 28 29 31 32 31 31 30 28 26 18 11 13 11 5 4 4 4 11 15 14 17 17 9 4 4 3 3 7 3 4 10 10 7 9 8 6 8 9 5 3 4 4 4 6 6 6 5 4 5 2 3 9 10 10 10 7 7 7 4 5 3 1 4 4 1 3 3 3 5 6 3 1 3 5 4 4 6 4 2 4 5 2 2 2 5
24 25 27 28 30 31 31 31 29 27 24 16 11 15 13 6 3 6 4 2 4 6 9 11 9 10 10 3 2 7 8 7 7 6 6 9 10 6 6 10 8 4 2 3 3 5 5 6 5 4 5 3 4 7 7 9 13 7 4 5 4 5 2 1 4 5 4 3 4 7 9 6 4 4 3 4 5 5 6 2 0 4 6 4 3 6 6
24 24 25 27 29 31 31 31 29 26 22 16 15 17 13 7 4 7 8 5 3 5 5 6 9 12 10 5 6 8 9 9 6 5 3 6 10 7 4 6 9 8 7 5 3 4 3 3 4 3 4 4 3 4 3 7 12 8 3 3 3 4 1 1 4 5 5 5 3 8 10 7 5 6 5 5 7 8 6 3 4 8 9 6 7 10 7
23 24 24 26 28 29 31 30 29 27 20 16 20 21 14 8 5 7 8 8 9 11 9 6 7 9 9 7 7 8 9 8 6 7 6 3 5 6 5 2 5 6 8 8 5 1 3 3 2 1 3 4 3 3 1 3 8 7 3 2 3 3 2 2 4 5 3 5 4 8 11 10 8 7 5 5 8 8 7 4 4 9 9 5 8 11 6
23 23 23 24 26 27 29 29 29 28 23 18 22 22 15 10 8 6 5 5 10 12 10 6 4 5 8 6 6 8 9 9 6 6 11 8 3 3 2 0 2 5 9 9 3 2 4 6 7 6 3 3 3 2 1 1 4 6 3 2 3 3 3 1 5 4 2 2 4 7 10 12 10 7 6 5 6 6 4 3 3 4 7 6 8 8 2
22 23 23 23 24 24 27 28 27 28 25 22 22 20 15 11 9 7 4 4 9 9 6 6 5 3 5 7 8 8 9 12 8 4 9 14 12 8 4 1 2 5 8 8 7 9 9 9 12 11 9 10 11 10 9 5 2 1 2 2 2 3 4 2 3 4 3 2 2 3 5 7 4 3 2 3 5 7 6 6 7 4 5 6 4 4 2
22 22 22 22 23 23 24 25 26 26 26 24 22 19 16 13 11 8 5 4 8 9 5 5 5 3 5 6 7 8 9 13 11 5 4 9 14 15 13 8 4 4 6 10 12 13 12 10 11 10 9 10 11 9 8 5 2 1 1 2 2 3 5 3 2 4 3 4 3 3 2 1 3 5 2 3 5 10 11 7 6 6 5 4 4 3 2
21 21 21 21 21 21 21 22 23 24 24 23 20 17 14 12 11 11 8 5 5 8 5 5 5 4 6 7 5 5 5 7 10 9 6 5 12 18 17 12 5 2 8 13 13 11 8 6 6 5 5 6 5 3 1 3 4 2 2 4 2 3 4 3 2 4 2 2 5 3 2 3 0 3 3 5 6 13 16 10 6 6 6 6 6 5 4
21 21 21 21 20 20 20 20 20 21 21 20 18 16 13 11 10 10 9 6 3 5 2 3 8 10 11 12 8 6 8 9 10 11 10 7 11 15 17 12 7 8 10 9 9 7 4 3 4 3 4 6 5 4 3 4 6 5 5 3 3 4 3 2 2 3 2 1 3 2 3 1 2 4 3 3 2 7 12 9 7 6 4 4 5 4 4
20 20 20 20 20 20 20 19 19 19 18 18 17 14 11 11 11 10 9 7 3 5 4 2 6 10 11 11 9 7 11 14 12 9 9 9 8 11 16 17 14 12 10 5 5 4 3 1 3 3 4 5 4 4 4 4 6 7 8 6 1 5 3 2 2 2 3 3 2 2 2 1 1 3 2 2 2 1 4 4 1 3 4 3 4 4 5
19 19 20 19 19 19 19 19 19 18 17 16 15 13 11 10 10 9 8 6 4 6 10 4 4 5 5 8 10 6 6 8 8 6 7 9 9 10 15 18 17 13 9 5 3 3 2 2 2 1 1 1 0 2 3 3 4 5 7 6 3 3 2 4 4 2 3 5 4 2 1 3 5 5 4 3 5 5 2 5 2 2 5 3 6 5 5
18 18 19 18 18 18 18 18 18 18 17 14 12 12 11 11 11 10 10 9 5 3 8 7 4 4 3 5 8 7 3 4 4 4 5 8 11 13 14 16 16 15 11 7 4 3 3 2 2 2 2 2 2 1 2 2 3 5 6 8 8 6 2 3 4 2 2 5 4 3 4 4 5 6 6 8 8 5 2 5 1 2 2 5 9 8 7
17 18 18 18 18 18 17 17 17 17 16 13 11 12 11 10 11 12 14 17 13 6 8 10 11 10 6 4 6 6 5 4 2 2 2 4 8 14 16 16 17 18 15 7 2 4 4 2 2 2 1 1 1 1 1 2 2 5 6 7 8 7 4 3 3 3 3 4 3 2 3 3 4 6 6 11 6 3 5 2 4 4 2 7 10 11 10
16 17 17 17 17 17 17 16 17 16 15 11 10 10 10 10 10 9 11 15 12 7 10 13 13 12 9 6 6 6 5 5 3 1 2 2 4 10 14 13 13 15 13 7 2 3 4 2 2 2 0 3 1 1 1 2 1 4 4 4 5 4 3 3 3 2 2 4 3 1 2 3 3 5 8 11 3 7 4 3 6 6 7 9 11 11 9
15 15 16 16 16 17 16 15 15 16 15 11 8 9 9 10 10 10 12 14 12 9 11 13 13 13 12 11 12 11 9 7 6 3 1 3 7 10 8 6 9 10 9 6 3 3 3 2 2 1 1 3 2 1 2 2 1 3 3 3 3 2 3 3 2 2 3 3 3 1 1 2 6 7 8 9 3 5 3 3 7 9 10 9 9 8 6
14 14 15 15 16 17 16 14 13 15 15 12 9 8 8 8 9 11 13 14 14 12 12 13 13 13 13 14 15 15 13 11 9 5 2 3 11 10 2 2 8 9 6 5 3 2 2 1 3 1 1 2 2 1 2 2 3 3 2 1 2 1 1 2 2 2 2 3 3 3 3 4 10 7 5 7 3 5 7 8 8 8 9 9 8 6 4
13 13 14 14 15 16 16 13 12 13 16 14 10 6 5 6 8 9 10 10 9 9 10 11 12 12 12 13 14 15 15 12 10 8 4 5 11 8 3 2 5 5 2 2 2 1 1 0 2 1 1 2 2 1 1 2 3 3 2 2 1 1 1 1 1 1 2 2 1 2 3 5 8 5 4 5 7 11 11 9 7 7 7 6 5 4 2
12 12 12 12 13 14 14 13 11 12 15 16 13 7 3 4 6 8 8 8 8 7 7 9 11 11 11 11 12 13 14 13 11 10 9 8 10 9 5 2 4 4 3 3 2 1 1 1 1 1 1 2 2 2 2 2 1 4 3 2 2 2 3 4 2 1 2 3 3 3 1 4 12 15 12 11 12 12 8 7 7 6 4 3 3 3 2
12 11 11 11 11 13 13 11 9 10 13 16 16 12 7 4 4 5 6 7 8 7 6 6 7 9 10 10 9 10 11 11 10 11 10 8 7 8 7 6 6 4 4 5 2 0 0 0 0 1 1 1 1 3 3 3 1 2 2 2 2 5 9 8 5 4 5 6 5 5 5 9 12 13 12 11 10 8 5 4 2 1 1 2 2 3 3
12 11 10 10 10 11 11 9 7 7 9 12 15 15 11 5 3 3 3 4 5 5 5 6 7 8 8 7 7 7 10 9 8 9 11 10 6 4 5 6 5 4 5 6 4 1 1 0 0 2 1 0 1 2 3 2 1 1 2 2 3 2 6 5 4 4 4 4 4 5 6 9 9 10 9 8 6 4 2 0 1 2 2 4 5 6 6
12 11 10 9 9 9 9 8 7 6 7 9 12 13 11 9 7 5 3 4 4 3 2 3 6 6 5 5 5 6 7 7 6 6 8 10 9 6 5 5 6 5 5 6 5 3 3 2 2 2 2 1 1 1 1 1 0 1 2 0 2 1 3 4 4 2 1 2 5 7 8 8 8 7 7 6 4 3 2 2 2 3 4 5 7 8 9
11 11 9 8 8 9 9 7 6 5 5 7 9 11 12 12 10 8 6 5 5 4 1 1 3 4 4 5 5 6 5 5 6 6 6 7 7 7 5 5 6 6 6 5 5 6 4 2 2 2 1 1 2 1 1 1 1 2 1 2 3 2 2 2 3 3 2 1 3 5 5 4 3 4 4 5 5 5 4 3 3 4 5 6 8 9 11
9 10 9 8 8 9 9 7 5 3 3 5 6 9 11 11 10 10 8 6 3 2 1 1 3 5 5 4 5 6 5 4 5 7 6 5 4 4 5 6 6 7 7 6 5 5 5 3 2 1 1 1 2 2 2 2 2 2 1 3 4 3 1 2 4 4 0 3 4 7 5 3 3 4 5 5 6 4 4 3 4 5 6 7 8 9 10
8 8 8 8 9 9 8 6 4 2 1 3 4 5 7 9 10 10 9 7 5 2 2 3 5 5 4 3 5 6 6 5 6 6 7 6 3 2 5 6 5 5 6 5 3 3 3 2 1 1 1 1 2 2 2 3 4 2 2 4 4 2 3 3 4 4 4 4 6 7 4 2 3 5 4 3 2 2 3 4 5 5 6 6 7 8 8
7 6 7 8 9 9 7 5 4 2 1 2 3 3 4 7 10 9 7 7 6 5 5 4 4 3 2 2 4 6 5 6 7 6 5 6 4 3 5 7 5 2 2 3 2 1 2 1 1 2 2 1 1 1 1 3 2 0 3 2 2 3 4 5 6 6 4 4 6 5 4 3 2 2 2 2 2 3 5 5 5 5 5 6 6 6 8
6 5 5 6 8 8 5 3 4 4 3 2 3 2 2 5 8 8 7 6 6 6 6 3 2 2 3 3 4 4 5 6 7 6 6 5 4 4 6 7 4 2 2 2 2 1 2 2 2 2 2 0 1 1 1 2 1 2 3 3 5 6 6 6 6 4 4 6 6 4 4 4 3 4 4 4 4 5 5 5 4 5 5 6 6 8 10
6 4 3 4 6 5 3 3 4 4 5 4 4 2 2 3 6 7 7 6 5 5 5 4 3 3 4 4 3 4 7 8 7 6 6 5 4 5 6 6 3 2 2 1 1 1 1 1 2 3 2 0 1 2 2 3 1 2 5 8 9 8 7 7 6 4 6 7 5 3 5 5 4 4 4 5 6 5 4 3 4 5 6 7 7 9 11
6 5 4 3 3 3 1 2 3 3 4 6 6 5 4 5 7 8 7 6 5 5 4 3 2 2 3 4 3 4 6 6 5 6 7 4 3 5 6 4 2 3 3 1 0 1 2 1 2 2 2 1 1 2 3 3 2 5 10 13 11 9 8 7 6 5 5 4 3 4 5 5 5 5 5 5 5 4 3 4 5 5 5 6 8 10 12
6 5 5 3 1 1 1 1 2 2 2 4 4 4 7 9 10 9 7 5 5 4 3 2 1 1 2 3 2 3 6 6 6 8 8 4 4 7 6 4 4 4 3 2 1 1 2 1 1 1 2 1 2 2 2 2 4 9 14 15 12 10 9 7 6 5 5 4 4 4 4 4 4 4 5 4 3 4 5 6 5 5 6 8 10 12 14
7 6 5 4 2 0 1 2 1 1 2 3 3 6 9 11 11 9 6 4 3 3 2 1 1 0 3 3 1 2 5 6 6 7 7 5 6 8 5 3 4 3 1 1 2 1 2 2 2 1 1 1 2 2 1 4 7 11 15 14 11 10 10 8 7 7 6 5 5 5 4 4 4 4 3 3 3 5 6 6 5 5 7 9 11 12 14
6 6 6 5 3 2 3 3 3 3 3 4 6 8 11 11 9 6 4 3 2 1 1 1 0 0 2 2 2 2 4 5 5 6 5 5 7 6 3 2 2 1 1 2 2 1 1 2 2 2 1 0 1 1 4 6 9 14 17 15 14 13 12 9 8 8 7 5 5 5 4 4 4 4 3 4 5 6 5 5 6 7 8 9 10 13 14
5 5 5 5 4 4 4 4 4 4 4 4 7 10 10 9 7 5 3 3 2 2 1 0 0 2 2 1 1 2 3 4 5 6 5 5 5 5 2 1 1 1 1 1 1 1 2 3 3 1 1 0 2 5 7 9 14 18 20 19 17 15 12 9 8 8 7 6 6 5 5 5 5 5 4 4 5 5 4 5 6 7 7 8 9 12 14
5 4 4 4 4 5 5 4 4 4 4 6 10 11 9 6 4 3 3 3 3 3 3 2 1 3 3 3 2 2 2 3 4 5 4 4 5 4 2 1 1 2 2 2 1 2 2 3 3 1 1 3 5 7 8 9 14 18 19 18 17 15 11 9 7 7 6 5 5 6 6 5 5 5 4 5 5 4 3 4 5 6 7 9 10 11 14
4 4 3 3 4 4 4 4 4 4 6 9 11 9 5 3 2 2 2 2 2 4 4 3 3 4 4 3 1 2 2 2 2 2 2 3 4 3 2 2 1 2 2 2 3 2 1 0 1 1 3 5 7 9 9 10 14 17 17 16 15 13 11 8 7 6 5 5 6 8 7 6 6 6 5 5 5 3 2 4 6 7 9 10 10 11 13
4 4 4 5 5 4 4 6 7 8 8 9 7 4 2 1 1 1 1 1 2 3 4 4 5 6 6 4 2 3 3 1 2 1 1 2 2 1 2 2 1 2 2 2 3 2 2 2 2 2 3 5 6 8 9 7 9 14 14 13 12 10 8 6 5 5 6 7 7 7 8 7 7 5 3 3 3 2 3 5 7 9 9 9 9 10 11
3 4 5 6 6 5 7 9 10 9 6 5 3 2 1 1 1 1 1 0 1 2 4 4 4 5 6 5 4 4 4 2 1 1 1 0 0 0 1 1 1 1 1 2 3 2 1 1 2 2 2 5 6 6 5 3 6 11 12 11 9 7 6 5 4 5 8 8 6 5 5 5 5 4 2 1 2 3 4 6 7 8 9 10 10 10 11
3 3 4 6 6 6 6 6 5 3 2 1 1 1 1 0 2 1 0 0 1 2 4 4 3 3 6 7 5 4 4 3 3 2 1 1 1 1 1 1 1 2 1 3 3 2 2 0 2 1 4 6 7 6 7 8 9 11 10 9 7 6 5 4 4 6 8 8 5 4 4 4 4 3 3 3 3 4 5 6 6 7 9 11 11 10 10
4 4 4 5 5 5 5 3 2 2 1 1 1 1 1 1 2 2 1 1 2 2 2 3 2 2 4 5 4 3 3 3 3 2 1 1 1 1 1 1 1 2 2 4 2 3 2 1 2 4 5 8 8 7 12 12 11 11 10 8 6 6 5 5 5 7 8 7 6 6 6 5 4 4 4 4 4 4 5 6 7 8 10 11 11 11 10
5 4 5 5 4 4 4 3 2 2 1 2 2 2 2 2 2 1 2 3 3 3 1 2 2 1 2 3 2 1 2 3 3 2 1 1 1 1 2 2 1 1 2 2 2 3 0 2 2 5 6 9 10 8 13 15 13 11 10 8 7 6 5 5 5 7 8 6 6 7 6 5 5 5 4 4 5 5 5 6 7 9 10 11 12 11 9
5 4 5 4 3 4 3 2 1 2 1 1 1 1 1 3 3 2 2 4 5 5 4 3 3 2 1 1 1 1 2 2 2 1 1 1 0 2 2 1 2 2 1 2 2 0 2 3 4 6 8 10 12 11 11 15 15 13 11 10 9 8 8 7 7 7 7 6 7 8 8 7 7 6 5 4 4 5 6 7 8 9 10 11 12 11 8
4 4 4 3 3 3 2 1 1 1 0 0 1 2 1 2 3 3 3 7 9 7 4 2 2 2 2 1 1 1 1 1 1 1 1 0 1 0 1 2 1 0 2 2 1 1 2 3 5 7 9 11 13 13 10 14 17 15 13 13 12 11 11 10 9 8 7 7 7 9 9 8 8 8 6 4 5 6 7 8 8 8 10 11 11 10 8
4 4 4 2 2 3 2 1 0 1 0 1 1 1 1 3 5 6 8 12 10 6 3 2 2 3 3 2 1 2 2 2 1 1 1 2 1 2 2 1 1 1 2 1 1 2 3 5 7 9 9 11 13 14 9 12 17 16 15 16 15 14 13 12 11 10 9 7 7 9 9 9 10 10 7 5 6 7 7 7 7 7 9 11 11 10 8
3 4 4 2 1 2 1 1 1 1 1 1 3 4 5 7 8 9 11 12 9 7 6 6 5 5 4 3 3 4 4 4 2 1 1 2 0 1 0 1 0 0 1 1 3 4 4 6 10 10 8 9 13 14 10 9 17 19 18 17 16 15 14 14 13 12 10 9 8 9 9 9 10 11 9 7 7 8 7 6 5 6 9 10 10 9 8
2 2 2 1 1 1 1 1 2 4 6 6 7 7 8 9 10 10 11 12 10 9 9 7 4 3 3 3 2 2 2 2 1 2 1 2 1 1 1 1 1 1 3 3 4 5 5 8 12 10 6 7 11 14 12 10 16 20 20 18 17 17 16 15 14 13 11 10 10 10 10 9 10 10 9 8 8 8 8 7 6 6 8 9 10 9 7
2 1 0 1 2 3 4 4 5 8 8 9 9 9 10 12 11 10 11 12 11 8 7 5 2 1 2 1 0 1 1 1 1 1 0 1 1 0 1 1 2 3 3 3 4 6 8 9 10 8 7 9 12 14 14 13 15 20 20 19 18 17 16 16 15 13 11 11 11 10 9 9 9 10 10 10 9 9 9 8 7 7 7 8 8 7 7
1 1 3 2 2 3 4 4 4 4 6 9 12 13 13 14 13 10 9 11 11 8 5 4 3 2 1 0 1 0 2 2 1 1 1 1 2 2 2 2 3 3 4 5 7 9 9 8 7 8 12 15 16 16 15 13 14 19 21 20 18 17 16 16 15 13 12 11 11 10 9 9 9 10 11 11 10 9 9 9 8 7 7 7 6 6 6
1 2 4 5 5 5 5 5 4 5 8 12 16 16 14 14 15 12 10 10 10 7 4 3 2 1 1 0 1 1 1 1 1 1 1 2 2 2 2 3 5 6 7 11 14 12 9 7 7 10 14 18 18 17 15 12 12 18 21 20 18 17 17 16 15 13 13 12 11 11 11 10 9 9 9 10 10 10 10 10 9 9 8 7 6 5 5
4 4 4 6 9 10 11 11 12 13 16 18 19 18 16 15 15 14 12 11 10 8 6 5 2 2 1 1 1 0 0 1 1 1 2 3 3 3 5 6 8 10 13 16 17 12 8 8 10 12 15 17 17 17 15 12 12 16 20 21 20 18 17 16 15 14 13 13 13 13 12 11 9 9 9 11 12 13 12 11 11 11 10 8 7 6 4
Wind_Direction
356 358 358 359 359 359 359 359 358 356 356 360 1 357 356 351 359 21 16 108 174 155 38 338 96 183 229 229 220 232 230 233 262 260 260 236 229 234 229 231 220 208 222 213 147 112 102 224 138 146 257 296 201 98 58 58 62 76 72 277 303 79 87 86 15 315 323 322 341 12 50 69 67 42 41 73 30 70 140 168 178 120 120 140 91 77 260
0 1 0 0 1 2 1 1 2 1 359 358 357 354 353 348 357 30 30 92 178 157 25 265 278 297 309 330 287 263 229 227 249 244 325 358 275 274 290 313 335 292 115 71 49 70 76 339 41 124 141 290 246 338 59 59 45 51 103 202 63 32 92 103 99 38 4 351 338 350 9 32 63 11 340 5 34 52 97 107 78 87 156 149 115 161 247
4 3 2 2 3 4 5 4 4 6 3 359 357 358 0 359 10 30 37 64 101 77 26 313 303 308 315 350 348 310 261 291 306 243 67 31 18 4 334 341 354 351 50 64 18 23 74 29 360 49 61 358 315 329 43 95 116 107 111 102 84 112 118 114 129 154 176 182 219 232 332 16 23 359 354 10 34 42 67 86 74 92 172 103 115 177 235
6 5 4 3 3 6 8 7 7 9 8 2 7 20 21 23 22 4 23 43 48 40 23 8 333 280 294 49 12 349 307 345 10 47 65 25 26 47 11 350 8 9 26 64 30 6 15 31 40 35 13 338 332 353 21 81 94 104 95 64 70 99 62 84 131 148 178 183 193 196 133 87 66 356 3 360 5 45 80 92 100 154 139 70 106 167 112
7 6 5 4 5 7 11 11 10 12 12 8 25 46 47 52 24 348 358 22 23 21 14 4 342 330 27 78 2 354 351 355 14 35 40 12 18 48 30 17 29 12 12 83 58 354 349 19 35 16 349 287 297 6 31 44 40 65 75 45 74 93 34 33 99 76 160 170 128 96 92 93 105 94 15 347 350 53 83 95 127 137 120 88 273 135 100
7 8 7 6 6 7 12 16 15 16 17 20 50 58 50 57 31 16 44 38 358 18 7 350 356 15 22 54 21 9 26 34 18 3 5 16 20 36 36 21 21 16 26 106 61 358 7 22 6 342 350 340 334 3 27 25 17 34 60 30 90 113 73 145 87 48 23 53 98 101 95 93 85 73 54 23 30 68 93 108 70 110 124 153 152 103 94
8 8 8 8 8 8 12 17 19 22 22 28 57 60 44 47 49 24 47 68 17 28 28 12 29 25 14 28 28 14 23 32 21 350 354 18 14 29 67 19 12 25 37 84 80 16 39 33 345 338 348 338 351 12 2 356 4 20 55 30 79 111 75 88 92 66 30 19 86 113 104 98 72 50 46 64 73 75 74 64 67 87 100 120 109 90 72
9 9 10 11 9 9 12 16 20 24 25 33 54 56 41 39 34 1 25 44 18 18 28 37 49 30 15 20 13 7 16 15 8 19 39 36 353 23 71 28 16 43 44 65 94 92 131 150 265 305 16 349 6 32 337 320 348 2 30 11 29 87 150 183 93 80 13 355 47 95 97 97 82 52 28 55 76 63 45 38 64 81 89 102 96 85 60
10 9 12 13 13 11 12 16 21 23 26 37 49 50 44 47 44 12 19 25 3 7 17 26 62 39 14 8 357 0 5 356 357 36 44 51 36 14 58 15 19 42 41 52 68 259 199 200 242 243 218 266 282 297 283 300 347 355 9 351 6 68 118 113 75 103 219 331 82 104 94 86 74 43 13 26 62 70 56 32 35 94 126 118 88 87 76
12 10 12 14 16 15 13 17 21 22 26 35 41 41 41 50 55 49 75 51 5 2 12 23 49 51 5 2 3 1 354 355 12 63 40 36 34 20 15 10 29 37 28 18 343 313 294 273 282 282 263 259 265 269 270 264 262 313 16 27 30 90 116 113 90 125 214 290 106 128 90 76 53 339 4 76 98 108 93 49 29 49 116 122 110 130 197
14 11 12 14 16 17 16 18 21 22 26 30 32 33 33 41 46 40 70 77 5 356 13 32 38 35 0 4 11 9 1 0 12 43 47 28 28 27 26 28 51 63 3 340 329 320 310 302 307 303 277 263 263 266 272 275 251 203 116 66 34 66 103 129 124 129 208 282 4 55 70 130 254 276 233 156 128 111 95 63 28 30 56 100 117 109 65
15 13 13 14 16 17 16 18 21 22 25 26 28 32 31 36 45 41 58 93 6 356 30 44 29 22 10 16 26 14 4 0 11 32 51 31 25 30 30 31 44 13 339 337 335 332 327 327 329 318 303 296 289 287 333 333 320 308 117 113 100 67 86 119 102 107 166 310 36 59 228 212 255 1 68 116 115 103 95 77 37 35 50 72 74 57 36
15 13 14 14 15 17 16 16 18 21 24 23 24 32 37 41 54 54 62 86 27 353 40 48 23 29 27 22 17 357 3 15 26 41 49 30 21 26 25 20 1 344 348 346 343 351 1 351 349 335 324 337 350 356 351 345 348 3 25 52 113 119 112 129 103 102 144 79 66 143 206 163 47 2 42 118 116 85 84 64 18 10 25 61 74 55 29
15 13 15 15 16 17 15 14 16 17 22 23 20 28 43 50 61 67 67 85 63 9 36 48 4 18 28 19 7 357 6 12 18 32 34 21 14 13 12 11 5 0 4 355 346 20 68 27 7 1 336 352 6 339 328 3 31 37 17 356 106 132 125 129 120 131 142 114 88 104 96 108 224 282 278 201 259 303 103 99 20 344 359 35 93 69 39
16 13 16 16 17 18 16 15 15 14 19 24 21 29 47 55 61 69 71 98 119 35 34 28 321 336 12 19 16 16 9 2 358 358 7 16 16 7 9 14 14 13 19 27 21 43 80 79 77 75 345 7 346 297 323 360 14 34 30 13 47 115 155 174 171 189 113 103 97 91 123 217 223 237 264 298 303 276 167 118 113 343 3 60 119 100 63
16 14 16 16 17 19 17 15 15 13 15 22 26 35 54 62 65 72 72 78 103 30 14 18 11 13 31 28 26 33 27 350 341 338 346 1 3 359 8 22 22 18 22 34 46 49 60 93 120 145 190 199 201 268 336 351 326 345 17 30 37 41 48 117 130 151 114 118 136 165 189 224 240 241 276 318 309 267 132 88 107 285 357 105 116 97 78
14 14 15 15 16 17 16 14 13 12 15 22 29 38 52 63 67 74 76 76 83 72 32 39 47 47 45 26 17 22 9 346 351 20 348 331 339 345 357 15 22 21 23 30 36 37 48 58 64 86 189 268 135 165 329 27 6 338 348 12 23 22 21 56 112 161 150 136 145 168 192 234 250 238 292 330 320 175 115 95 241 235 141 116 106 90 77
12 13 13 13 14 15 15 14 11 13 19 26 32 39 51 63 67 73 79 81 84 67 44 50 55 53 51 43 31 26 7 344 343 355 318 312 334 337 344 3 17 15 20 35 54 39 44 24 19 70 6 324 35 115 336 30 24 333 343 15 20 15 14 43 116 122 82 110 112 63 243 258 278 277 325 349 31 148 144 220 210 168 137 117 96 87 75
8 11 12 12 12 12 14 15 13 14 22 28 34 41 49 60 69 77 81 82 84 72 57 60 61 57 55 56 53 51 43 28 24 33 19 346 343 335 336 15 23 8 12 39 59 50 49 5 330 75 63 338 351 46 38 44 14 342 9 35 21 7 360 16 63 48 41 101 110 86 221 301 328 319 340 9 74 179 205 184 153 134 130 118 95 89 82
4 8 10 10 10 10 12 17 18 17 21 26 32 37 36 42 60 76 82 85 86 79 66 62 60 56 58 60 53 46 45 43 35 44 115 316 338 347 20 43 4 359 12 36 36 30 53 7 314 7 58 327 328 39 58 53 41 32 48 46 22 46 49 31 27 19 46 78 74 102 157 322 333 322 334 9 54 165 148 129 128 122 119 117 110 104 90
1 3 7 10 9 8 10 14 18 19 22 25 25 25 27 36 59 79 86 89 87 77 68 64 60 57 60 60 51 43 44 49 42 36 41 6 5 24 121 218 337 354 14 46 43 359 19 315 297 351 25 318 336 40 59 44 24 11 47 111 65 7 66 150 277 340 69 95 76 143 207 321 5 61 98 71 104 134 130 119 123 128 124 125 133 138 141
358 359 3 9 10 8 9 12 15 16 21 25 26 28 38 51 72 84 85 83 83 81 78 69 60 57 61 59 51 45 43 45 44 38 35 33 42 62 93 66 30 27 8 29 60 11 354 13 4 46 29 343 1 30 48 91 52 338 352 63 36 34 106 114 98 35 64 97 116 141 165 41 64 87 104 105 111 121 119 113 124 137 147 164 174 179 206
356 355 358 6 11 10 8 10 13 13 15 21 28 35 39 51 87 87 81 85 88 84 78 67 57 55 54 51 48 41 34 34 37 37 35 35 51 67 64 48 45 38 22 33 54 184 135 110 156 89 63 3 58 49 40 70 96 321 1 35 47 108 116 105 99 107 82 79 103 122 105 87 86 93 103 108 111 115 110 108 123 159 220 246 270 285 286
353 352 355 2 9 10 9 7 8 8 9 16 26 33 38 54 86 81 81 96 90 77 67 59 48 36 28 31 33 20 16 20 25 34 40 39 39 60 63 49 44 40 31 28 16 9 118 235 326 89 89 350 79 80 58 54 25 355 45 9 349 108 118 98 104 134 117 103 150 164 136 121 115 113 118 122 125 131 131 106 309 302 284 282 292 298 300
350 350 352 359 4 6 6 5 2 358 1 14 26 34 46 62 63 54 69 84 76 75 71 41 33 27 19 34 32 0 357 14 19 20 35 41 45 65 79 61 46 34 26 25 23 38 68 47 30 85 107 10 25 92 103 98 135 73 84 244 292 20 79 89 104 118 111 144 168 168 155 144 133 124 132 140 143 161 196 238 271 270 266 276 290 300 303
347 348 347 351 359 359 357 358 360 355 351 5 22 32 40 52 54 53 64 75 71 73 76 345 13 24 25 34 27 1 352 12 12 6 22 45 58 66 60 44 35 25 22 33 42 48 63 73 66 89 112 28 30 107 132 120 118 85 89 236 273 336 30 112 107 76 33 19 161 153 154 171 168 151 158 165 165 181 201 208 231 252 265 281 294 300 302
340 345 344 344 350 352 352 352 355 4 358 352 9 27 32 39 49 54 54 54 57 59 24 309 339 3 16 29 23 14 18 15 354 356 15 37 56 55 33 20 18 15 15 25 39 43 51 61 64 79 204 329 27 58 91 95 89 85 46 308 336 23 109 126 90 85 264 249 176 152 160 226 220 179 172 171 169 184 211 231 257 271 278 288 295 297 299
329 339 339 338 343 348 352 354 354 11 23 354 6 29 30 29 40 46 43 41 46 38 327 308 317 340 19 52 28 16 24 18 355 356 17 23 15 11 11 6 4 3 5 13 32 41 34 41 48 312 294 50 52 25 39 62 65 63 307 311 350 59 151 152 122 143 199 210 174 165 181 212 167 154 168 184 191 248 274 281 291 292 288 290 295 298 299
315 331 334 333 339 347 356 12 24 41 60 344 4 37 38 29 33 35 29 28 32 19 352 335 333 340 349 15 15 15 21 15 2 359 12 15 360 331 345 354 352 325 326 1 42 51 348 325 277 310 339 27 88 340 25 65 72 259 262 289 37 80 110 129 131 135 144 159 170 187 212 209 183 201 245 262 285 299 303 309 309 300 295 300 304 306 309
295 314 326 330 337 346 360 38 60 68 73 32 12 42 59 31 27 23 14 8 8 7 4 2 357 341 324 320 344 355 350 351 354 350 341 342 346 340 335 337 333 279 277 336 27 21 333 329 335 337 327 273 129 95 104 120 146 248 237 184 143 132 130 135 138 138 154 169 178 199 218 225 257 287 286 288 301 310 315 316 312 310 316 322 323 323 324
278 285 302 322 334 344 7 63 86 87 77 58 53 76 78 22 10 10 6 358 356 7 7 346 323 331 343 338 327 324 326 330 339 344 332 321 332 342 330 323 313 260 262 319 9 267 290 301 315 334 336 168 125 98 125 132 121 246 212 184 171 164 153 148 148 147 157 167 175 198 216 233 276 296 280 284 304 317 322 316 322 331 332 328 327 328 327
262 260 261 301 336 339 16 98 100 102 82 60 58 61 39 9 1 0 359 359 7 15 11 354 339 342 352 346 323 321 339 343 344 351 349 335 334 345 336 322 296 268 269 294 276 268 294 262 240 295 318 221 154 79 101 119 153 209 198 187 181 176 165 160 162 166 173 185 190 201 220 245 282 298 296 300 310 316 319 319 325 333 330 321 319 321 322
247 242 237 251 321 8 177 165 116 103 74 47 39 19 357 351 349 349 350 356 9 14 10 18 61 249 316 338 323 318 349 4 5 1 5 4 342 340 335 317 303 287 266 254 242 271 307 271 219 274 290 217 140 86 100 176 213 205 193 184 181 180 179 181 189 196 214 237 245 247 257 267 284 303 308 307 304 308 314 317 321 329 332 329 327 327 326
244 234 227 228 236 330 227 220 219 320 354 1 347 332 334 335 334 335 341 348 360 1 345 359 75 265 314 343 14 328 352 7 7 1 8 5 340 330 319 305 312 304 259 266 271 259 271 252 213 214 240 194 98 80 248 251 232 204 189 182 183 187 188 192 205 222 239 256 264 273 280 282 288 298 292 277 288 308 315 319 328 333 333 333 337 341 342
248 233 224 222 231 283 289 261 249 264 299 336 341 335 335 333 327 324 327 330 342 351 309 307 71 74 336 346 348 335 351 5 359 345 344 341 333 324 308 308 324 315 257 269 255 247 281 242 195 202 254 278 110 198 233 235 218 198 189 186 188 190 190 197 212 226 239 260 274 276 274 273 279 279 260 259 293 314 314 311 315 317 319 327 338 345 348
249 233 226 225 234 272 295 281 257 255 277 331 346 344 338 330 321 311 297 289 290 280 256 255 155 165 161 182 288 306 344 3 358 347 341 337 332 325 321 336 324 288 285 283 272 303 275 209 188 238 334 184 209 235 237 225 210 201 197 198 197 196 203 219 226 223 232 260 277 268 256 256 263 259 244 256 294 319 313 301 304 309 316 326 332 337 343
245 227 220 229 251 278 289 282 269 269 301 332 337 334 324 310 304 298 284 277 273 256 234 213 230 218 196 196 247 288 337 343 340 346 350 341 327 319 329 3 312 315 332 335 325 306 239 194 171 171 224 222 245 264 262 242 226 217 210 207 206 207 218 228 220 209 224 253 254 241 240 247 247 238 234 253 286 312 310 301 307 314 322 327 327 329 336
234 225 230 263 285 290 278 269 275 292 319 330 330 326 312 294 291 283 263 247 243 240 226 219 239 231 204 190 234 275 303 335 359 9 356 345 335 333 354 17 348 347 347 306 294 308 305 219 85 182 242 261 275 279 277 260 240 230 221 211 208 212 219 221 213 212 234 254 246 236 234 232 226 228 242 263 279 294 298 301 306 309 315 324 326 323 329
242 262 283 293 298 290 270 275 284 296 315 327 327 317 298 306 313 275 226 217 236 226 212 222 239 224 200 196 234 251 260 325 36 42 339 354 4 347 359 12 2 19 21 309 306 350 357 326 353 352 287 288 292 292 294 279 234 220 214 206 206 214 221 226 234 255 277 286 276 259 248 240 232 230 241 264 268 272 293 300 302 304 312 321 322 319 323
268 288 292 294 297 290 284 288 291 292 303 322 327 322 346 341 267 205 163 243 268 222 207 228 252 237 220 226 234 222 224 246 275 242 257 326 63 63 40 29 337 30 41 277 301 8 59 287 344 359 269 276 292 293 286 241 192 193 196 198 208 225 235 242 268 295 299 295 284 259 241 228 218 214 220 265 283 299 306 301 300 307 318 322 320 317 320
353 331 316 310 309 306 304 306 306 294 295 348 356 350 7 307 271 281 57 87 280 248 216 218 241 239 223 219 213 201 212 228 229 216 224 266 232 125 78 293 318 53 98 259 297 27 83 48 337 291 255 287 302 271 218 194 188 192 196 205 221 237 250 264 288 301 300 294 273 234 210 194 195 216 250 267 281 306 314 307 309 322 327 324 321 319 318
3 348 335 329 327 330 339 3 68 104 89 53 33 359 337 300 302 307 232 221 275 285 227 211 239 244 207 196 193 190 190 196 201 195 170 243 229 175 150 327 21 65 220 254 320 42 59 344 302 256 273 318 323 257 218 208 204 205 208 216 228 241 260 281 293 298 300 288 253 226 215 208 218 246 266 260 262 286 308 313 320 329 329 325 325 324 318
0 1 357 353 1 12 13 30 84 91 62 60 51 8 340 340 344 325 280 281 301 331 345 257 244 207 160 170 188 171 160 188 217 218 168 208 236 109 69 39 46 182 243 284 40 63 190 229 225 242 282 331 336 277 235 221 212 212 219 227 235 247 264 278 288 298 300 282 239 223 222 230 240 251 257 250 249 263 287 306 318 325 327 327 329 326 314
357 360 355 349 3 23 19 15 56 53 35 63 79 69 16 347 334 305 304 322 327 331 321 283 232 194 174 221 217 181 173 196 236 259 211 222 238 76 75 246 236 237 304 358 41 104 241 231 232 257 289 324 334 312 262 230 218 218 226 231 235 243 251 260 275 287 290 276 243 226 225 235 239 234 230 232 243 261 281 295 308 320 326 327 327 323 310
358 358 1 355 360 13 10 337 3 25 16 183 121 143 173 287 281 251 288 314 308 296 293 273 216 212 243 237 199 215 224 205 216 239 220 106 48 63 223 227 221 63 22 13 342 313 298 257 257 281 301 319 334 332 294 239 224 224 230 235 238 243 247 254 267 274 275 272 254 236 231 233 230 221 218 233 254 270 284 289 295 310 323 326 325 324 314
13 18 27 27 349 1 25 94 5 359 130 135 112 161 230 289 293 298 322 326 315 296 304 327 294 263 251 228 230 264 241 194 189 237 178 102 59 246 213 155 82 34 33 18 299 276 246 245 268 297 319 333 341 340 309 242 223 223 232 238 241 246 252 255 259 264 269 267 254 244 239 235 229 224 225 239 256 268 279 284 288 304 319 325 325 326 323
27 32 47 72 300 341 14 164 217 285 271 303 339 339 336 331 327 331 343 342 327 306 301 298 282 269 257 235 233 245 226 193 181 226 173 130 136 276 142 92 26 223 155 210 256 244 231 260 289 310 336 351 347 340 319 249 223 223 232 241 244 248 255 256 254 258 263 259 250 246 241 231 223 223 230 246 260 265 271 279 291 307 320 327 329 329 328
24 23 41 107 207 247 215 207 293 307 302 307 321 329 336 341 344 352 359 352 329 297 279 269 260 270 272 243 226 249 240 176 178 239 211 133 83 345 11 12 302 243 189 198 218 222 242 286 308 321 338 341 333 328 317 274 235 227 231 241 244 247 253 255 253 255 259 258 253 250 245 233 223 223 232 249 263 265 267 274 287 304 318 328 333 334 333
9 13 158 197 236 251 253 272 300 304 300 305 315 323 332 338 341 348 357 356 342 312 281 270 269 273 269 251 135 329 277 177 168 228 16 82 105 211 165 182 257 264 245 212 211 233 262 293 317 325 319 315 317 316 311 288 252 233 232 239 243 246 252 255 254 254 255 255 254 253 249 239 229 226 231 241 253 263 270 272 275 291 314 328 334 337 341
307 247 224 221 249 280 285 293 302 294 293 305 315 321 327 329 328 333 348 348 337 319 290 269 258 246 253 15 43 342 257 227 181 142 135 189 201 192 183 212 230 232 231 233 242 257 277 302 320 319 313 312 309 307 307 295 259 238 235 238 241 245 252 255 254 252 252 252 251 250 247 242 236 232 232 235 245 261 270 267 264 276 302 320 327 334 345
220 245 236 224 228 255 277 287 285 280 283 294 304 310 313 313 314 323 335 335 327 319 295 254 239 66 50 354 221 216 222 213 174 141 199 219 197 162 172 221 224 222 245 268 276 279 283 290 298 312 321 318 305 297 301 299 266 242 236 236 240 246 251 254 252 250 251 251 250 247 247 247 246 240 232 230 236 248 258 260 258 265 281 297 305 314 336
219 248 250 239 245 258 267 268 269 276 281 288 296 302 303 301 306 315 319 315 306 293 274 258 226 129 129 232 256 273 172 196 200 209 229 234 216 184 196 228 242 251 269 287 295 291 276 274 290 309 319 316 303 293 294 292 270 246 237 237 241 245 248 249 249 249 250 250 247 245 245 248 248 243 235 229 231 238 248 256 259 260 267 278 284 284 298